FW5309 Weather Reports


Display with metric or nautical units.
time (UTC)temp
F
wind
direction
speed
MPH
gust
MPH
rain 1hr
in
rain 24hr
in
rain mn
in
humidity
%
barometer
mb
20260510141525 75 87 0.0 10.0 0.00 0.00 0.00 39 1015.0
20260510140020 74 130 1.0 12.0 0.00 0.00 0.00 41 1015.4
20260510134541 73 86 0.0 9.0 0.00 0.00 0.00 42 1015.2
20260510133041 71 118 5.0 11.0 0.00 0.00 0.00 45 1015.2
20260510131604 70 143 1.0 10.0 0.00 0.00 0.00 49 1015.1
20260510130057 66 106 0.0 0.0 0.00 0.00 0.00 61 1015.0
20260510124516 63 106 0.0 0.0 0.00 0.00 0.00 66 1015.0
20260510123025 60 106 0.0 0.0 0.00 0.00 0.00 71 1015.0
20260510121542 58 106 0.0 0.0 0.00 0.00 0.00 73 1015.0
20260510120039 57 106 0.0 0.0 0.00 0.00 0.00 78 1015.0
20260510114511 55 106 0.0 0.0 0.00 0.00 0.00 84 1014.6
20260510113003 53 106 0.0 0.0 0.00 0.00 0.00 86 1014.6
20260510111531 51 106 0.0 0.0 0.00 0.00 0.00 85 1014.1
20260510110021 50 106 0.0 0.0 0.00 0.00 0.00 84 1014.0
20260510104527 49 106 0.0 0.0 0.00 0.00 0.00 84 1013.9
20260510103035 49 106 0.0 0.0 0.00 0.00 0.00 83 1013.5
20260510101547 49 106 0.0 0.0 0.00 0.00 0.00 83 1013.4
20260510100051 49 106 0.0 0.0 0.00 0.00 0.00 83 1013.4
20260510094515 49 106 0.0 0.0 0.00 0.00 0.00 83 1013.2
20260510093017 50 106 0.0 0.0 0.00 0.00 0.00 82 1013.0
20260510091552 50 105 0.0 0.0 0.00 0.00 0.00 82 1012.9
20260510084511 50 105 0.0 0.0 0.00 0.00 0.00 82 1012.8
20260510083009 50 105 0.0 0.0 0.00 0.00 0.00 82 1012.9
20260510081535 50 105 0.0 0.0 0.00 0.00 0.00 81 1012.5
20260510080036 50 105 0.0 0.0 0.00 0.00 0.00 80 1012.4
20260510074553 51 105 0.0 0.0 0.00 0.00 0.00 81 1012.2
20260510073042 51 105 0.0 0.0 0.00 0.00 0.00 80 1012.3
20260510071511 51 105 0.0 0.0 0.00 0.00 0.00 79 1012.1
20260510070022 52 105 0.0 0.0 0.00 0.00 0.00 78 1012.1
20260510064553 52 105 0.0 0.0 0.00 0.00 0.00 77 1012.2
20260510063043 52 105 0.0 0.0 0.00 0.00 0.00 77 1012.3
20260510061553 53 105 0.0 0.0 0.00 0.00 0.00 77 1012.4
20260510060045 53 105 0.0 0.0 0.00 0.00 0.00 75 1012.4
20260510054600 54 105 0.0 0.0 0.00 0.00 0.00 74 1012.4
20260510053056 54 105 0.0 0.0 0.00 0.00 0.00 73 1012.4
20260510051517 55 105 0.0 0.0 0.00 0.00 0.00 73 1012.4
20260510050026 55 105 0.0 0.0 0.00 0.00 0.00 71 1012.4
20260510044531 56 105 0.0 0.0 0.00 0.00 0.00 70 1012.3
20260510043019 56 105 0.0 0.0 0.00 0.00 0.00 71 1012.3
20260510041540 56 105 0.0 0.0 0.00 0.00 0.00 70 1012.2
20260510040048 57 105 0.0 0.0 0.00 0.00 0.00 68 1012.3
20260510034602 57 105 0.0 0.0 0.00 0.00 0.00 67 1012.2
20260510033049 58 105 0.0 0.0 0.00 0.00 0.00 65 1011.8
20260510031502 59 105 0.0 0.0 0.00 0.00 0.00 63 1011.8
20260510030010 60 105 0.0 0.0 0.00 0.00 0.00 60 1011.8
20260510024533 61 105 0.0 0.0 0.00 0.00 0.00 58 1011.6
20260510023030 62 105 0.0 0.0 0.00 0.00 0.00 57 1011.3
20260510021542 62 105 0.0 0.0 0.00 0.00 0.00 56 1011.2
20260510020046 62 106 0.0 0.0 0.00 0.00 0.00 55 1011.0
20260510014515 63 106 0.0 0.0 0.00 0.00 0.00 54 1010.7
20260510013017 64 106 0.0 0.0 0.00 0.00 0.00 53 1010.2
20260510011545 65 106 0.0 0.0 0.00 0.00 0.00 51 1010.2
20260510010040 65 106 0.0 0.0 0.00 0.00 0.00 49 1010.1
20260510004510 66 106 0.0 0.0 0.00 0.00 0.00 47 1010.0
20260510003008 68 106 0.0 0.0 0.00 0.00 0.00 45 1010.1
20260510001521 70 106 0.0 0.0 0.00 0.00 0.00 42 1009.7
20260510000016 72 106 0.0 0.0 0.00 0.00 0.00 39 1009.4
20260509234534 73 101 0.0 0.0 0.00 0.00 0.00 35 1009.1
20260509233040 74 101 0.0 7.0 0.00 0.00 0.00 32 1009.1
20260509231608 75 112 0.0 1.0 0.00 0.00 0.00 31 1008.9
20260509224604 75 123 0.0 9.0 0.00 0.00 0.00 30 1008.9
20260509224501 75 59 0.0 9.0 0.00 0.00 0.00 30 1008.9
20260509223007 75 116 2.0 9.0 0.00 0.00 0.00 32 1008.7
20260509221540 75 105 0.0 7.0 0.00 0.00 0.00 32 1008.6
20260509220034 76 97 0.0 0.0 0.00 0.00 0.00 32 1008.6
20260509214508 76 103 0.0 0.0 0.00 0.00 0.00 32 1008.6
20260509213005 77 97 1.0 12.0 0.00 0.00 0.00 30 1008.4
20260509211515 77 22 0.0 11.0 0.00 0.00 0.00 29 1008.4
20260509210029 78 105 2.0 13.0 0.00 0.00 0.00 27 1008.3
20260509204557 79 98 1.0 13.0 0.00 0.00 0.00 27 1008.1
20260509203054 78 72 0.0 14.0 0.00 0.00 0.00 29 1008.1
20260509201513 76 119 0.0 18.0 0.00 0.00 0.00 29 1008.1
20260509200015 78 107 2.0 13.0 0.00 0.00 0.00 28 1008.2
20260509194533 77 78 3.0 11.0 0.00 0.00 0.00 30 1008.1
20260509193046 77 57 3.0 14.0 0.00 0.00 0.00 30 1008.3
20260509191557 76 71 1.0 8.0 0.00 0.00 0.00 31 1008.4
20260509190059 78 180 0.0 7.0 0.00 0.00 0.00 30 1008.5
20260509184515 77 56 1.0 8.0 0.00 0.00 0.00 28 1008.6
20260509183027 77 103 0.0 6.0 0.00 0.00 0.00 32 1008.8
20260509181521 75 1 0.0 5.0 0.00 0.00 0.00 37 1009.1
20260509180022 77 316 1.0 7.0 0.00 0.00 0.00 35 1009.2
20260509174535 75 95 0.0 0.0 0.00 0.00 0.00 40 1009.4
20260509173030 74 37 0.0 1.0 0.00 0.00 0.00 42 1009.6
20260509171546 74 280 0.0 0.0 0.00 0.00 0.00 44 1009.8
20260509164505 74 280 0.0 0.0 0.00 0.00 0.00 42 1010.2
20260509163011 76 280 0.0 1.0 0.00 0.00 0.00 41 1010.1
20260509161529 74 280 0.0 6.0 0.00 0.00 0.00 45 1010.0
20260509160025 71 263 0.0 5.0 0.00 0.00 0.00 46 1010.3
20260509154545 73 252 0.0 6.0 0.00 0.00 0.00 42 1010.3
20260509153047 72 224 1.0 7.0 0.00 0.00 0.00 44 1010.8
20260509151506 70 198 1.0 5.0 0.00 0.00 0.00 46 1010.4
20260509150007 70 195 0.0 0.0 0.00 0.00 0.00 49 1010.5
20260509144518 68 195 0.0 1.0 0.00 0.00 0.00 50 1010.8
20260509143035 66 126 0.0 0.0 0.00 0.00 0.00 54 1011.0